Hourly Data Report for October 19, 2015

All times are specified in Local Standard Time (LST). Add 1 hour to adjust for Daylight Saving Time where and when it is observed.

BATHURST A
NEW BRUNSWICK

47°37'47.000" N
65°44'20.000" W
58.80 m
8100505
71574
ZBF

Download Data

Hourly Data (October 2015)
Hourly Data Report for October 19, 2015
Temp Definition
°C
Dew Point Temp Definition
°C
Rel Hum Definition
%
Wind Dir Definition
10's deg

Wind Spd Definition
km/h
Visibility Definition
km
Stn Press Definition
kPa
Hmdx Definition


Wind Chill Definition


Weather Definition


TIME
00:00 Legend Double Dagger -1.5 -5.5 74 29 14 24.1 101.13   -6 LegendNANA
01:00 Legend Double Dagger -1.9 -5.9 74 29 14 24.1 101.16   -7 LegendNANA
02:00 Legend Double Dagger -2.3 -6.3 74 27 10 24.1 101.21   -6 Clear
03:00 Legend Double Dagger -2.7 -6.4 76 28 14 24.1 101.23   -8 LegendNANA
04:00 Legend Double Dagger -3.0 -6.5 77 28 11 24.1 101.30   -7 LegendNANA
05:00 Legend Double Dagger -2.5 -6.7 73 29 13 24.1 101.35   -7 Clear
06:00 Legend Double Dagger -2.5 -6.9 72 28 10 24.1 101.40   -6 LegendNANA
07:00 Legend Double Dagger -1.6 -8.0 62 29 12 24.1 101.45   -6 LegendNANA
08:00 Legend Double Dagger -1.2 -7.6 62 29 11 24.1 101.49   -5 Mostly Cloudy
09:00 Legend Double Dagger -0.4 -7.9 57 31 16 24.1 101.50   -5 LegendNANA
10:00 Legend Double Dagger 0.3 -7.3 57 31 11 24.1 101.50     LegendNANA
11:00 Legend Double Dagger 0.4 -7.6 55 33 12 24.1 101.49     Mostly Cloudy
12:00 Legend Double Dagger 1.6 -7.7 50 31 14 24.1 101.47     LegendNANA
13:00 Legend Double Dagger 2.0 -7.6 49 28 10 24.1 101.42     LegendNANA
14:00 Legend Double Dagger 3.3 -8.1 43 28 17 24.1 101.33     Mainly Clear
15:00 Legend Double Dagger 3.5 -8.6 41 30 10 24.1 101.26     LegendNANA
16:00 Legend Double Dagger 3.3 -8.4 42 25 18 24.1 101.19     LegendNANA
17:00 Legend Double Dagger 2.6 -8.2 45 24 7 24.1 101.13     Mainly Clear
18:00 Legend Double Dagger -1.5 -6.7 68 20 4 24.1 101.12   -3 LegendNANA
19:00 Legend Double Dagger -1.1 -4.8 76 24 7 24.1 101.13   -4 LegendNANA
20:00 Legend Double Dagger 0.2 -5.8 64 21 7 24.1 101.07     Cloudy
21:00 Legend Double Dagger 1.0 -5.9 60 20 9 24.1 101.06     LegendNANA
22:00 Legend Double Dagger -0.2 -2.4 85 19 10 11.3 100.95   -4 Snow Showers
23:00 Legend Double Dagger -0.2 -1.8 89 19 10 8.1 100.85   -4 Snow Showers

Notes on Data Quality.

Legend

  • E = Estimated
  • M = Missing
  • NA = Not Available
  • ‡ = Partner data that is not subject to review by the National Climate Archives
Date modified: